FLOCK 1C-7

Last updated on Wed Feb 14 2018 16:18:37 GMT+0000 (Coordinated Universal Time)

1 40026U 14033S 18045.49854235 -.00000160 00000-0 -10698-4 0 9998 2 40026 97.9219 323.8189 0010570 221.8068 138.2341 14.89868052198624
UTC large
Height (km)
Speed (km/s)
/
Latitude / Longitude
Inclination (degrees)
Orbital Period (minutes)
Azimuth
Elevation
Range (km)
Doppler Factor

Next 0 passes for location: London (51.5072 / 0.1276)

Sorry there are no passes over London.